Location: Hilton Head Island
(32.2163°N, 80.7526°W)
Time: 05:55:10
(UTC-04:00)

Vanguard 2 - Pass Details

Date: 23 February 2026
Orbit: 553 x 2896 km, 32.9° (Epoch: 10 March)

Event Time Altitude Azimuth Distance (km) Brightness Sun altitude
Exits shadow 06:27:31 - 271° (W) 3,133 10.0 -7.0°
Reaches altitude 10° 06:28:10 10° 272° (W) 2,881 9.8 -6.9°
Maximum altitude 06:34:40 83° 0° (N) 761 7.5 -5.5°
Drops below altitude 10° 06:39:03 10° 88° (E) 1,970 11.4 -4.6°
Sets 06:41:02 0° 90° (E) 2,781 12.8 -4.2°
